Simultaneous Nadir Overpasses (SNOs) Predictions

Prediction of SNOs between GOES-16 and METOP-B Satellite Orbit:

Table of predicted SNOs for the next 14.0 days since TLE Epoch: 10/11/2019
Index Date Time (GOES-16) GOES-16 Lat,Lon METOP-B Lat,Lon Distance(km) Time Diff (sec)
1 10/13/2019 14:29:56 0.01, -75.21 -0.09, -74.80 46.44 80
2 10/15/2019 02:48:55 -0.01, -75.20 -0.96, -79.39 477.75 80
3 10/16/2019 02:25:36 -0.01, -75.21 0.17, -74.40 91.88 80
4 10/17/2019 14:44:27 0.01, -75.22 0.85, -78.96 425.96 80
5 10/18/2019 14:26:27 0.00, -75.23 -0.28, -73.97 143.76 80
6 10/20/2019 02:45:27 0.00, -75.23 -0.76, -78.56 380.09 80
7 10/21/2019 02:22:07 0.00, -75.23 0.37, -73.57 189.71 80
8 10/22/2019 14:40:59 -0.00, -75.26 0.65, -78.13 327.79 80
9 10/23/2019 14:22:59 -0.00, -75.26 -0.48, -73.14 242.42 80
10 10/25/2019 02:41:58 0.00, -75.27 -0.55, -77.73 280.28 80




NCC Satellite Simultaneous Nadir Overpasses (SNOs) Prediction Service
